Location: Greene
(44.1583°N, 70.1456°W)
Time: 06:44:56
(UTC-05:00)

ISS - Visible Passes

Search period start: 20 February 2018 00:00
Search period end: 02 March 2018 00:00
Orbit: 403 x 407 km, 51.6° (Epoch: 21 February)

Date Brightness Start Highest point End Pass type
(mag) Time Alt. Az. Time Alt. Az. Time Alt. Az.
25 Feb -1.3 05:51:56 10° S 05:54:36 23° SE 05:57:17 10° E visible
26 Feb -0.8 05:00:58 10° SSE 05:02:32 13° SE 05:04:08 10° ESE visible
27 Feb -3.0 05:43:09 10° SW 05:46:20 51° SE 05:49:32 10° ENE visible
28 Feb -2.0 04:51:47 13° SSW 04:54:10 28° SE 04:57:02 10° ENE visible
01 Mar -1.2 04:02:02 16° SE 04:02:02 16° SE 04:04:08 10° E visible
01 Mar -3.8 05:34:54 10° WSW 05:38:10 73° NNW 05:41:27 10° NE visible
